Regional Weather Roundup
Issued by NWS

Home | Current Version | Previous Version | Graphics & Text | Print | Product List | Glossary On
Versions: 1 2 3 4 5 6 7 8 9 10 11 12 13 14 15 16 17 18 19 20 21 22 23 24 25 26 27 28 29 30 31 32 33 34 35 36 37 38 39 40 41 42 43 44 45 46 47 48 49 50
000
ASUS43 KMKX 021700
RWRWI

WISCONSIN REGIONAL WEATHER ROUNDUP
NATIONAL WEATHER SERVICE MILWAUKEE/SULLIVAN WI
1200 PM CDT SUN AUG 02 2015

NOTE: "FAIR" INDICATES FEW OR NO CLOUDS BELOW 12,000 FEET WITH NO
SIGNIFICANT WEATHER AND/OR OBSTRUCTIONS TO VISIBILITY.

WIZ001-002-006>008-014>016-023>028-021800-
NORTHWEST WISCONSIN

CITY           SKY/WX    TMP DP  RH WIND       PRES   REMARKS
SUPERIOR ARPT  PTSUNNY   72  61  66 W9G16     29.64R
ASHLAND        CLOUDY    73  60  63 W7        29.64R
HAYWARD        PTSUNNY   72  63  73 CALM      29.64S
SIREN          PTSUNNY   73  65  74 NW9       29.67R
CUMBERLAND     CLOUDY    72  64  78 CALM      29.63R
RICE LAKE      CLOUDY    74  66  76 CALM      29.62F
CHETEK         CLOUDY    74  68  81 CALM      29.61F
LADYSMITH      CLOUDY    74  66  75 NW3       29.66R
EAU CLAIRE     NOT AVBL
MENOMONIE      CLOUDY    79  67  65 SW10      29.59F HX  81
NEW RICHMOND   CLOUDY    79  65  62 SW10      29.61S HX  81
OSCEOLA        PTSUNNY   78  67  69 W10       29.67R HX  80
$$

WIZ003>005-009-010-017-018-021800-
NORTH CENTRAL WISCONSIN

CITY           SKY/WX    TMP DP  RH WIND       PRES   REMARKS
MANITOWISH WTR CLOUDY    64  64  97 S8        29.64F
ARBOR VITAE    CLOUDY    66  64  92 N15       29.68R
WOODRUFF       CLOUDY    66  64  92 N15       29.68R
RHINELANDER    CLOUDY    69  64  84 NW7       29.66R
EAGLE RIVER    CLOUDY    67  65  94 NW7       29.65R
LAND O LAKES   CLOUDY    65  62  88 NW6       29.69R
PHILLIPS       TSTM      67  66  95 E7        29.60F
TOMAHAWK       CLOUDY    74  66  76 SE3       29.60F
MEDFORD        PTSUNNY   75  68  78 SW10      29.62F
MERRILL        NOT AVBL
$$

WIZ029-030-035-036-043>047-021800-
CENTRAL WISCONSIN

CITY           SKY/WX    TMP DP  RH WIND       PRES   REMARKS
WAUSAU         PTSUNNY   81  67  62 SW12      29.58F HX  83
MOSINEE        MOSUNNY   81  68  65 SW12      29.62F HX  83
MARSHFIELD     MOSUNNY   85  65  51 SW16G23   29.60F HX  86
STEVENS POINT  MOSUNNY   83  65  53 SW17G23   29.62F HX  85
WAUPACA        MOSUNNY   87  65  47 SW15      29.62F HX  89
WAUTOMA        NOT AVBL
WISC RAPIDS    MOSUNNY   88  65  46 SW17G24   29.63F HX  90
CAMP DOUGLAS   NOT AVBL
$$

WIZ011>013-019>022-031-037>040-048>050-021800-
NORTHEAST WISCONSIN

CITY           SKY/WX    TMP DP  RH WIND       PRES   REMARKS
ANTIGO         CLOUDY    73  67  80 W5        29.64F
SHAWANO        PTSUNNY   82  69  66 SW7       29.61F HX  85
OCONTO         CLOUDY    77  71  81 SW9       29.61S
STURGEON BAY   CLOUDY    73  64  73 SW10      29.64S
GREEN BAY      PTSUNNY   83  68  60 SW16G23   29.61F HX  86
MANITOWOC      NOT AVBL
APPLETON       PTSUNNY   82  66  57 SW15G21   29.65F HX  85
CLINTONVILLE   MOSUNNY   84  64  51 SW16      29.61F HX  86
OSHKOSH        MOSUNNY   85  68  56 SW18G26   29.64F HX  88
$$

WIZ032>034-041-042-053>061-021800-
SOUTHWEST WISCONSIN

CITY           SKY/WX    TMP DP  RH WIND       PRES   REMARKS
LA CROSSE      SUNNY     87  69  54 S13       29.62F HX  91
SPARTA         SUNNY     86  65  49 SW8G17    29.65F HX  87
VIROQUA        SUNNY     83  69  63 SW15G21   29.71F HX  86
BOSCOBEL       SUNNY     88  68  51 SW13G21   29.71F HX  91
PRAIRIE DU CHI SUNNY     86  64  47 SW14G20   29.72F HX  87
PLATTEVILLE    SUNNY     82  70  66 SW14      29.78S HX  86
$$

WIZ056-057-062-063-064-067-068-021800-
SOUTH CENTRAL WISCONSIN

CITY           SKY/WX    TMP DP  RH WIND       PRES   REMARKS
REEDSBURG      SUNNY     85  69  58 SW13G18   29.70F HX  89
BARABOO/DELLS  SUNNY     85  65  51 SW14G21   29.70F HX  87
LONE ROCK      NOT AVBL
MINERAL POINT  SUNNY     82  68  61 SW14G20   29.78R HX  85
MADISON        MOSUNNY   84  69  60 SW9G18    29.72F HX  88
MIDDLETON      SUNNY     86  66  52 SW17      29.74F HX  88
WATERTOWN      MOSUNNY   83  71  67 SW12G21   29.73F HX  88
MONROE         SUNNY     82  66  57 SW22      29.78S HX  85
JANESVILLE     SUNNY     88  66  48 SW18G24   29.75F HX  90
$$

WIZ051-052-058>065-066-070>072-021800-
SOUTHEAST WISCONSIN

CITY           SKY/WX    TMP DP  RH WIND       PRES   REMARKS
MILWAUKEE      PTSUNNY   88  68  51 SW18G28   29.74S HX  91
WAUKESHA       SUNNY     84  66  54 SW15G23   29.75F HX  86
MILWAUKEE/TIMM NOT AVBL
RACINE         MOSUNNY   87  67  51 W17G26    29.76R HX  90
BURLINGTON     MOSUNNY   85  66  53 SW15G22   29.76S HX  87
KENOSHA        MOSUNNY   87  69  54 W20G33    29.76S HX  91
FOND DU LAC    MOSUNNY   85  70  60 SW16G25   29.67F HX  89
SHEBOYGAN      PTSUNNY   85  71  63 SW15G22   29.68F HX  90
WEST BEND      MOSUNNY   82  66  57 SW10G21   29.72F HX  85
JUNEAU         SUNNY     82  69  65 SW15G22   29.73F HX  85
$$

LSZ147-162-021800-
LAKE SUPERIOR

STATION/POSITION TIME  TEMP    WIND        PRES    WAVE
                       AIR SEA DIR/SP/G            HT/PER
                 (UTC) (F)     (DEG/KT/KT) (MB)    (FT/S)
W MID LAKE BUOY  1550   58 55  220/  6/ 10 1001.5F   1/ 4
DEVILS ISLAND    1600   66     230/  9/ 11 1002.2F
PORT WING        1620   68     350/  2/  7 1003.0R
SAXON HARBOR     1620   69                 1002.7F
$$

LMZ867-665-643>646-021800-
LAKE MICHIGAN

STATION/POSITION TIME  TEMP    WIND        PRES    WAVE
                       AIR SEA DIR/SP/G            HT/PER
                 (UTC) (F)     (DEG/KT/KT) (MB)    (FT/S)
CHAMBERS ISLAND  1600   72     210/  7/ 16 1003.0F
S GREEN BAY BUOY 1500   69 65  200/ 10/ 14 1006.4
N MID LAKE BUOY  1550   67 68  280/  4/  6 1003.3F   2/ 4
NORTHPORT PIER   1600   70     300/  3/ 15 1001.7F
SISTER BAY       1545   70     120/ 14/ 19   N/A
ALGOMA LAKESHORE 1642          230/ 16/ 19   N/A
KEWAUNEE LAKESHO 1600   71     220/  5/  8 1003.9F
SHEBOYGAN LAKESH 1600   80     250/ 15/ 21 1006.0R
PORT WASHINGTON  1600   84     250/ 13/ 21 1006.8F
ATWATER BUOY     1600   78 57  230/ 14/ 17 1008.1F
MILWAUKEE LAKESH 1600   83     250/ 14/ 25   N/A
KENOSHA   LAKESH 1600   85     250/ 20/ 25 1007.1F
$$

TC  - TEMPERATURE IN CELSIUS
VSB - VISIBILITY IN STATUTE MILES
WCI - WIND CHILL INDEX
HX  - HEAT INDEX




USA.gov is the U.S. government's official web portal to all federal, state and local government web resources and services.